Regional Weather Roundup
Issued by NWS Northern Indiana

Home | Current Version | Previous Version | Graphics & Text | Print | Product List | Glossary On
Versions: 1 2 3 4 5 6 7 8 9 10 11 12 13 14 15 16 17 18 19 20 21 22 23 24 25 26 27 28 29 30 31 32 33 34 35 36 37 38 39 40 41 42 43 44 45 46 47 48 49 50
000
ASUS43 KIWX 211700
RWRIWX

KIWX WEATHER ROUNDUP
NATIONAL WEATHER SERVICE NORTHERN INDIANA
100 PM EDT THU AUG 21 2014

NOTE: "FAIR" INDICATES FEW OR NO CLOUDS BELOW 12,000 FEET WITH NO
SIGNIFICANT WEATHER AND/OR OBSTRUCTIONS TO VISIBILITY.

* THESE STATIONS ARE NOT UNDER NWS QUALITY CONTROL. THEY ALSO MAY NOT
  REPORT WEATHER SUCH AS PRECIPITATION OR FOG.

INZ001>027-211800-
NORTHERN INDIANA

CITY           SKY/WX    TMP DP  RH WIND       PRES   REMARKS
GARY*          CLOUDY    77  73  88 SW14      29.96R
VALPARAISO     CLOUDY    76  71  85 S14       29.97S
KNOX*          CLOUDY    73  71  92 S9        29.96F
SOUTH BEND     CLOUDY    76  70  82 S9        29.97S
ELKHART*       CLOUDY    75  68  78 SE8       29.97F
GOSHEN         LGT RAIN  77  70  79 S8        29.98S
MONTICELLO*    CLOUDY    76  72  87 S6        30.00S
WARSAW*        LGT RAIN  72  70  94 S6        29.99F
ANGOLA*        MOSUNNY   75  70  83 CALM      30.00F
FORT WAYNE     CLOUDY    74  71  91 S9        30.01F

$$
INZ028>050-211800-
CENTRAL INDIANA

CITY           SKY/WX    TMP DP  RH WIND       PRES   REMARKS
LAFAYETTE      CLOUDY    79  72  79 SW6       30.01F
KOKOMO*        CLOUDY    72  70  94 S13       30.04S
MUNCIE*        CLOUDY    70  68  93 S9        30.06F
INDIANAPOLIS   PTSUNNY   80  71  74 VRB3      30.05S

$$
MIZ043>046-050>051-056>058-064>065-071>073-077>080-211800-
SOUTHWEST LOWER MICHIGAN

CITY           SKY/WX    TMP DP  RH WIND       PRES   REMARKS
BATTLE CREEK   CLOUDY    79  68  69 S6        29.99F
BENTON HARBOR  CLOUDY    80  70  71 SE5       29.94F
COLDWATER*     CLOUDY    78  69  72 SW3       29.99F
HILLSDALE*     CLOUDY    80  69  70 S7        30.01F
HOLLAND        CLOUDY    79  70  74 E3        29.95F
GRAND RAPIDS   CLOUDY    77  72  84 E6        29.97F
KALAMAZOO      CLOUDY    79  67  66 VRB3      29.97F
STURGIS*       CLOUDY    73  70  88 CALM      29.97F
THREE RIVERS*  FAIR      76  69  79 E3        29.97F

$$
OHZ001>008-015>018-024>025-211800-
NORTHWEST OHIO

CITY           SKY/WX    TMP DP  RH WIND       PRES   REMARKS
DEFIANCE       CLOUDY    76  69  79 SW7       30.01F
FINDLAY        CLOUDY    75  69  81 SW14      30.04R
TOLEDO METCALF CLOUDY    80  68  66 W14       30.02S
LIMA           LGT RAIN  71  69  93 S7        30.06F FOG

$$
&&



USA.gov is the U.S. government's official web portal to all federal, state and local government web resources and services.